Location: The Saddle
(36.8333°N, 80.3417°W)
Time: 17:47:30
(UTC-04:00)

AO-73 - Visible Passes

Search period start: 30 March 2023 00:00
Search period end: 09 April 2023 00:00
Orbit: 573 x 649 km, 97.7° (Epoch: 30 March)

Date Brightness Start Highest point End Pass type
(mag) Time Alt. Az. Time Alt. Az. Time Alt. Az.
30 Mar ? 05:11:45 10° N 05:14:56 45° NNW 05:14:56 45° NNW visible
31 Mar ? 03:51:54 10° ENE 03:52:43 12° ENE 03:52:43 12° ENE visible
31 Mar ? 05:26:26 10° N 05:29:42 35° NW 05:29:42 35° NW visible
01 Apr ? 04:05:34 10° NE 04:07:29 18° ENE 04:07:29 18° ENE visible
01 Apr ? 05:41:13 10° NNW 05:44:28 25° WNW 05:44:28 25° WNW visible
02 Apr ? 04:19:35 10° NNE 04:22:14 27° ENE 04:22:14 27° ENE visible
02 Apr ? 05:56:12 10° NNW 05:58:57 18° WNW 05:59:13 17° WNW visible
03 Apr ? 04:33:47 10° NNE 04:36:58 41° ENE 04:36:58 41° ENE visible
03 Apr ? 06:11:38 10° NW 06:13:15 12° WNW 06:13:57 12° WNW visible
04 Apr ? 04:48:06 10° NNE 04:51:40 62° NE 04:51:40 62° NE visible
05 Apr ? 05:02:31 10° N 05:06:23 71° NW 05:06:23 71° NW visible
06 Apr ? 03:43:38 10° ENE 03:44:06 11° E 03:44:06 11° E visible
06 Apr ? 05:17:02 10° N 05:20:59 47° WNW 05:21:05 47° W visible
07 Apr ? 03:56:39 10° NE 03:58:47 16° E 03:58:47 16° E visible
07 Apr ? 05:31:40 10° N 05:35:18 31° WNW 05:35:46 31° W visible
08 Apr ? 04:10:24 10° NE 04:13:27 24° E 04:13:27 24° E visible
08 Apr ? 05:46:26 10° NNW 05:49:34 22° WNW 05:50:25 20° W visible
